User: anonymous   Login
Location: Bismarck
(46.7731°N, 100.8200°W)
Time: 03:56:52
(UTC-06:00)
Language:

Landsat 7 - Orbit

View from above orbital plane
View from above orbital plane
View from above satellite
View from above satellite

Ground track
Ground track

The orbit data is extracted from the following two-line orbital elements,

1 25682U 99020A   16345.69653184 -.00000006  00000-0  86563-5 0  9994
2 25682  98.1953  53.5276 0000622 109.5395 250.5871 14.57117332939148
Epoch (UTC): 10 December 2016 16:43:00
Eccentricity: 0.0000622
inclination: 98.1953°
perigee height: 702 km
apogee height: 703 km
right ascension of ascending node: 53.5276°
argument of perigee: 109.5395°
revolutions per day: 14.57117332
mean anomaly at epoch: 250.5871°
orbit number at epoch: 93914

The dashed part of the orbit path shows where the satellite is in the earth's shadow,  

DLR